Darstellungsparameter: Aktuell verwendete Einstellungen:
Skalierung der Graphiken ... ?
xyx+y,   Skalierungsfaktor:      Skalierung: Modus: x, Faktor: 1
Darstellungszeitraum ... ?
Vom - - bis: - -   Zeitraum: 05.01.2020 - 05.01.2020
Min/Max/Avg-Anzeige ... ?
Zeige MMA aktuell
Zeige MMA Monat
Zeige MMA alles
Zeige --A aktuell
Zeige --A Monat
Zeige --A alles
Keine MMA-Anzeige
MMA:
Average (ber die Originaldaten)
MMA-Basis: 05.01.2020 - 05.01.2020
Quicknavigation für Darstellung... ?
Tage:      1T, 2T, 3T, 5T -1T -2T -3T -5T +1T +2T +3T +5T
Wochen: 1W, 2W, 3W -1W -2W -3W +1W +2W +3W
Monate: 1M, 3M, 6M -1M -3M -6M +1M +3M +6M
Jahre:    1J, 3J, 5J, 10J -1J -3J -5J -10J +1J +3J +5J +10J
Nutze für die Darstellung ... ?
Originaldaten oder Mittelwerte auf ...
Stundenbasis Tagesbasis Wochenbasis
Monatsbasis Jahresbasis      Datenbasis: Original-Daten
Darstellen als:
Statistik (Auto) Statistik J:M      Darstellung:
Zur Graphik,    zurück zur Übersicht aller Sensoren.
 
Tabellarische Datenbersicht: ?
 
Sensor: Nr:Datum:Temp:Feuchte:
Aussen-T/F 1 05-01-2020 00:03:17 5.6 C 33 %
2 05-01-2020 00:13:17 5.5 C 35 %
3 05-01-2020 00:23:17 5.4 C 35 %
4 05-01-2020 00:33:18 5.4 C 35 %
5 05-01-2020 00:43:18 5.3 C 36 %
6 05-01-2020 00:53:17 5.3 C 36 %
7 05-01-2020 01:03:17 5.1 C 37 %
8 05-01-2020 01:13:17 5 C 40 %
9 05-01-2020 01:23:17 4.9 C 42 %
10 05-01-2020 01:33:17 4.8 C 41 %
11 05-01-2020 01:43:18 4.8 C 42 %
12 05-01-2020 01:53:17 4.7 C 42 %
13 05-01-2020 02:03:18 4.8 C 41 %
14 05-01-2020 02:13:18 4.7 C 41 %
15 05-01-2020 02:23:17 4.6 C 43 %
16 05-01-2020 02:33:17 4.5 C 44 %
17 05-01-2020 02:43:17 4.6 C 44 %
18 05-01-2020 02:53:17 4.6 C 42 %
19 05-01-2020 03:03:17 4.6 C 42 %
20 05-01-2020 03:13:17 4.6 C 41 %
21 05-01-2020 03:23:17 4.3 C 42 %
22 05-01-2020 03:33:17 4.3 C 43 %
23 05-01-2020 03:43:17 4.4 C 44 %
24 05-01-2020 03:53:17 4.5 C 44 %
25 05-01-2020 04:03:17 4.4 C 43 %
Sensor: Nr:Datum:Temp:Feuchte:
Aussen-T/F 26 05-01-2020 04:13:17 4.4 C 43 %
27 05-01-2020 04:23:17 4.3 C 42 %
28 05-01-2020 04:33:17 4.3 C 43 %
29 05-01-2020 04:43:17 4.4 C 43 %
30 05-01-2020 04:53:17 4.4 C 42 %
31 05-01-2020 05:03:17 4.4 C 42 %
32 05-01-2020 05:13:17 4.4 C 42 %
33 05-01-2020 05:23:17 4.4 C 42 %
34 05-01-2020 05:33:18 4.5 C 43 %
35 05-01-2020 05:43:18 4.6 C 43 %
36 05-01-2020 05:53:17 4.5 C 43 %
37 05-01-2020 06:03:17 4.6 C 43 %
38 05-01-2020 06:13:17 4.6 C 43 %
39 05-01-2020 06:23:17 4.6 C 42 %
40 05-01-2020 06:33:17 4.7 C 41 %
41 05-01-2020 06:43:17 4.7 C 40 %
42 05-01-2020 06:53:17 4.6 C 41 %
43 05-01-2020 07:03:17 4.6 C 41 %
44 05-01-2020 07:13:17 4.6 C 42 %
45 05-01-2020 07:23:17 4.5 C 42 %
46 05-01-2020 07:33:17 4.5 C 41 %
47 05-01-2020 07:43:17 4.4 C 41 %
48 05-01-2020 07:53:17 4.4 C 41 %
49 05-01-2020 08:03:18 4.3 C 42 %
50 05-01-2020 08:13:18 4.3 C 42 %
Sensor: Nr:Datum:Temp:Feuchte:
Aussen-T/F 51 05-01-2020 08:23:17 4.3 C 41 %
52 05-01-2020 08:33:17 4.4 C 42 %
53 05-01-2020 08:43:17 4.4 C 41 %
54 05-01-2020 08:53:17 4.6 C 40 %
55 05-01-2020 09:03:18 4.6 C 39 %
56 05-01-2020 09:13:18 4.6 C 40 %
57 05-01-2020 09:23:17 4.7 C 38 %
58 05-01-2020 09:33:18 4.8 C 38 %
59 05-01-2020 09:43:18 5 C 36 %
60 05-01-2020 09:53:17 5.1 C 35 %
61 05-01-2020 10:03:17 5.3 C 35 %
62 05-01-2020 10:13:18 5.4 C 34 %
63 05-01-2020 10:23:18 5.4 C 34 %
64 05-01-2020 10:33:18 5.5 C 33 %
65 05-01-2020 10:43:18 5.5 C 33 %
66 05-01-2020 10:53:17 5.5 C 34 %
67 05-01-2020 11:03:17 5.7 C 34 %
68 05-01-2020 11:13:17 5.7 C 33 %
69 05-01-2020 11:23:17 5.7 C 33 %
70 05-01-2020 11:33:17 5.9 C 32 %
71 05-01-2020 11:43:17 5.9 C 32 %
72 05-01-2020 11:53:17 6 C 32 %
73 05-01-2020 12:03:17 6 C 31 %
74 05-01-2020 12:13:17 6 C 31 %
75 05-01-2020 12:23:17 6.1 C 31 %
Sensor: Nr:Datum:Temp:Feuchte:
Aussen-T/F 76 05-01-2020 12:33:17 6.2 C 31 %
77 05-01-2020 12:43:17 6.2 C 31 %
78 05-01-2020 12:53:17 6.2 C 31 %
79 05-01-2020 13:03:17 6.3 C 31 %
80 05-01-2020 13:13:17 6.5 C 30 %
81 05-01-2020 13:23:17 6.5 C 30 %
82 05-01-2020 13:33:18 6.5 C 30 %
83 05-01-2020 13:43:18 6.6 C 30 %
84 05-01-2020 13:53:18 6.6 C 30 %
85 05-01-2020 14:03:18 6.7 C 30 %
86 05-01-2020 14:13:18 6.6 C 30 %
87 05-01-2020 14:23:18 6.7 C 30 %
88 05-01-2020 14:33:18 6.7 C 30 %
89 05-01-2020 14:43:18 6.7 C 30 %
90 05-01-2020 14:53:17 6.7 C 30 %
91 05-01-2020 15:03:18 6.6 C 30 %
92 05-01-2020 15:13:18 6.6 C 30 %
93 05-01-2020 15:23:18 6.5 C 31 %
94 05-01-2020 15:33:18 6.3 C 33 %
95 05-01-2020 15:43:18 6.1 C 34 %
96 05-01-2020 15:53:18 6 C 35 %
97 05-01-2020 16:03:18 6 C 35 %
98 05-01-2020 16:13:18 5.9 C 36 %
99 05-01-2020 16:23:17 5.8 C 36 %
100 05-01-2020 16:33:17 5.7 C 36 %
Sensor: Nr:Datum:Temp:Feuchte:
Aussen-T/F 101 05-01-2020 16:43:17 5.7 C 35 %
102 05-01-2020 16:53:18 5.6 C 36 %
103 05-01-2020 17:03:18 5.6 C 35 %
104 05-01-2020 17:13:18 5.6 C 34 %
105 05-01-2020 17:23:18 5.7 C 31 %
106 05-01-2020 17:33:18 5.6 C 31 %
107 05-01-2020 17:43:18 5.6 C 31 %
108 05-01-2020 17:53:17 5.7 C 31 %
109 05-01-2020 18:03:17 5.6 C 31 %
110 05-01-2020 18:13:17 5.5 C 31 %
111 05-01-2020 18:23:17 5.6 C 30 %
112 05-01-2020 18:33:17 5.7 C 29 %
113 05-01-2020 18:43:17 5.5 C 30 %
114 05-01-2020 18:53:17 5.6 C 30 %
115 05-01-2020 19:03:17 5.5 C 30 %
116 05-01-2020 19:13:17 5.6 C 30 %
117 05-01-2020 19:23:17 5.4 C 31 %
118 05-01-2020 19:33:17 5.3 C 31 %
119 05-01-2020 19:43:17 5.4 C 31 %
120 05-01-2020 19:53:18 5.3 C 31 %
121 05-01-2020 20:03:18 5.2 C 32 %
122 05-01-2020 20:13:18 5.5 C 29 %
123 05-01-2020 20:23:18 5.3 C 30 %
124 05-01-2020 20:33:18 5.3 C 30 %
125 05-01-2020 20:43:18 5.2 C 31 %
Sensor: Nr:Datum:Temp:Feuchte:
Aussen-T/F 126 05-01-2020 20:53:18 5.2 C 31 %
127 05-01-2020 21:03:18 5 C 32 %
128 05-01-2020 21:13:18 5.1 C 32 %
129 05-01-2020 21:23:18 5 C 32 %
130 05-01-2020 21:33:17 4.9 C 34 %
131 05-01-2020 21:43:17 4.8 C 35 %
132 05-01-2020 21:53:17 4.8 C 35 %
133 05-01-2020 22:03:17 4.8 C 35 %
134 05-01-2020 22:13:17 4.8 C 35 %
135 05-01-2020 22:23:17 4.7 C 35 %
136 05-01-2020 22:33:17 4.7 C 35 %
137 05-01-2020 22:43:17 4.7 C 35 %
138 05-01-2020 22:53:17 4.6 C 36 %
139 05-01-2020 23:03:17 4.5 C 36 %
140 05-01-2020 23:13:17 4.4 C 37 %
141 05-01-2020 23:23:17 4.4 C 36 %
142 05-01-2020 23:33:17 4.5 C 36 %
143 05-01-2020 23:43:17 4.4 C 35 %
144 05-01-2020 23:53:17 4.5 C 33 %
Sensor: Nr:Datum:Temp:Feuchte:
G-T/H 1 05-01-2020 00:03:17 9.3 C 73 %
2 05-01-2020 00:13:17 9.3 C 73 %
3 05-01-2020 00:23:17 9.3 C 73 %
4 05-01-2020 00:33:18 9.3 C 73 %
5 05-01-2020 00:43:18 9.3 C 73 %
6 05-01-2020 00:53:17 9.3 C 73 %
7 05-01-2020 01:03:17 9.3 C 73 %
8 05-01-2020 01:13:17 9.3 C 73 %
9 05-01-2020 01:23:17 9.3 C 73 %
10 05-01-2020 01:33:17 9.3 C 73 %
11 05-01-2020 01:43:18 9.3 C 73 %
12 05-01-2020 01:53:17 9.3 C 73 %
13 05-01-2020 02:03:18 9.3 C 73 %
14 05-01-2020 02:13:18 9.3 C 73 %
15 05-01-2020 02:23:17 9.3 C 73 %
16 05-01-2020 02:33:17 9.3 C 73 %
17 05-01-2020 02:43:17 9.3 C 73 %
18 05-01-2020 02:53:17 9.3 C 73 %
19 05-01-2020 03:03:17 9.3 C 73 %
20 05-01-2020 03:13:17 9.3 C 73 %
21 05-01-2020 03:23:17 9.3 C 73 %
22 05-01-2020 03:33:17 9.3 C 73 %
23 05-01-2020 03:43:17 9.3 C 73 %
24 05-01-2020 03:53:17 9.3 C 73 %
25 05-01-2020 04:03:17 9.3 C 73 %
Sensor: Nr:Datum:Temp:Feuchte:
G-T/H 26 05-01-2020 04:13:17 9.3 C 73 %
27 05-01-2020 04:23:17 9.3 C 73 %
28 05-01-2020 04:33:17 9.3 C 73 %
29 05-01-2020 04:43:17 9.3 C 73 %
30 05-01-2020 04:53:17 9.3 C 73 %
31 05-01-2020 05:03:17 9.3 C 73 %
32 05-01-2020 05:13:17 9.3 C 73 %
33 05-01-2020 05:23:17 9.3 C 73 %
34 05-01-2020 05:33:18 9.3 C 73 %
35 05-01-2020 05:43:18 9.3 C 73 %
36 05-01-2020 05:53:17 9.3 C 73 %
37 05-01-2020 06:03:17 9.4 C 73 %
38 05-01-2020 06:13:17 9.3 C 73 %
39 05-01-2020 06:23:17 9.3 C 73 %
40 05-01-2020 06:33:17 9.3 C 73 %
41 05-01-2020 06:43:17 9.3 C 73 %
42 05-01-2020 06:53:17 9.3 C 73 %
43 05-01-2020 07:03:17 9.3 C 73 %
44 05-01-2020 07:13:17 9.4 C 74 %
45 05-01-2020 07:23:17 9.4 C 73 %
46 05-01-2020 07:33:17 9.4 C 74 %
47 05-01-2020 07:43:17 9.4 C 73 %
48 05-01-2020 07:53:17 9.4 C 73 %
49 05-01-2020 08:03:18 9.4 C 73 %
50 05-01-2020 08:13:18 9.4 C 73 %
Sensor: Nr:Datum:Temp:Feuchte:
G-T/H 51 05-01-2020 08:23:17 9.4 C 73 %
52 05-01-2020 08:33:17 9.4 C 73 %
53 05-01-2020 08:43:17 9.4 C 73 %
54 05-01-2020 08:53:17 9.4 C 73 %
55 05-01-2020 09:03:18 9.4 C 73 %
56 05-01-2020 09:13:18 9.4 C 73 %
57 05-01-2020 09:23:17 9.4 C 73 %
58 05-01-2020 09:33:18 9.4 C 73 %
59 05-01-2020 09:43:18 9.4 C 73 %
60 05-01-2020 09:53:17 9.4 C 73 %
61 05-01-2020 10:03:17 9.4 C 73 %
62 05-01-2020 10:13:18 9.4 C 73 %
63 05-01-2020 10:23:18 9.4 C 73 %
64 05-01-2020 10:33:18 9.4 C 74 %
65 05-01-2020 10:43:18 9.4 C 73 %
66 05-01-2020 10:53:17 9.4 C 74 %
67 05-01-2020 11:03:17 9.4 C 74 %
68 05-01-2020 11:13:17 9.4 C 74 %
69 05-01-2020 11:23:17 9.4 C 74 %
70 05-01-2020 11:33:17 9.4 C 74 %
71 05-01-2020 11:43:17 9.4 C 74 %
72 05-01-2020 11:53:17 9.4 C 74 %
73 05-01-2020 12:03:17 9.4 C 74 %
74 05-01-2020 12:13:17 9.4 C 74 %
75 05-01-2020 12:23:17 9.4 C 74 %
Sensor: Nr:Datum:Temp:Feuchte:
G-T/H 76 05-01-2020 12:33:17 9.4 C 74 %
77 05-01-2020 12:43:17 9.4 C 74 %
78 05-01-2020 12:53:17 9.4 C 74 %
79 05-01-2020 13:03:17 9.4 C 74 %
80 05-01-2020 13:13:17 9.4 C 74 %
81 05-01-2020 13:23:17 9.4 C 74 %
82 05-01-2020 13:33:18 9.4 C 74 %
83 05-01-2020 13:43:18 9.4 C 74 %
84 05-01-2020 13:53:18 9.4 C 74 %
85 05-01-2020 14:03:18 9.4 C 74 %
86 05-01-2020 14:13:18 9.4 C 74 %
87 05-01-2020 14:23:18 9.4 C 74 %
88 05-01-2020 14:33:18 9.5 C 74 %
89 05-01-2020 14:43:18 9.4 C 74 %
90 05-01-2020 14:53:17 9.4 C 74 %
91 05-01-2020 15:03:18 9.4 C 74 %
92 05-01-2020 15:13:18 9.4 C 74 %
93 05-01-2020 15:23:18 9.5 C 74 %
94 05-01-2020 15:33:18 9.5 C 74 %
95 05-01-2020 15:43:18 9.5 C 74 %
96 05-01-2020 15:53:18 9.5 C 74 %
97 05-01-2020 16:03:18 9.5 C 74 %
98 05-01-2020 16:13:18 9.5 C 74 %
99 05-01-2020 16:23:17 9.5 C 74 %
100 05-01-2020 16:33:17 9.5 C 74 %
Sensor: Nr:Datum:Temp:Feuchte:
G-T/H 101 05-01-2020 16:43:17 9.5 C 74 %
102 05-01-2020 16:53:18 9.5 C 74 %
103 05-01-2020 17:03:18 9.5 C 74 %
104 05-01-2020 17:13:18 9.5 C 74 %
105 05-01-2020 17:23:18 9.5 C 74 %
106 05-01-2020 17:33:18 9.5 C 74 %
107 05-01-2020 17:43:18 9.5 C 74 %
108 05-01-2020 17:53:17 9.5 C 74 %
109 05-01-2020 18:03:17 9.5 C 74 %
110 05-01-2020 18:13:17 9.5 C 74 %
111 05-01-2020 18:23:17 9.5 C 74 %
112 05-01-2020 18:33:17 9.5 C 74 %
113 05-01-2020 18:43:17 9.6 C 74 %
114 05-01-2020 18:53:17 9.5 C 74 %
115 05-01-2020 19:03:17 9.6 C 74 %
116 05-01-2020 19:13:17 9.6 C 74 %
117 05-01-2020 19:23:17 9.6 C 74 %
118 05-01-2020 19:33:17 9.6 C 74 %
119 05-01-2020 19:43:17 9.6 C 74 %
120 05-01-2020 19:53:18 9.6 C 74 %
121 05-01-2020 20:03:18 9.6 C 74 %
122 05-01-2020 20:13:18 9.6 C 74 %
123 05-01-2020 20:23:18 9.6 C 74 %
124 05-01-2020 20:33:18 9.6 C 74 %
125 05-01-2020 20:43:18 9.6 C 74 %
Sensor: Nr:Datum:Temp:Feuchte:
G-T/H 126 05-01-2020 20:53:18 9.6 C 74 %
127 05-01-2020 21:03:18 9.6 C 74 %
128 05-01-2020 21:13:18 9.6 C 74 %
129 05-01-2020 21:23:18 9.6 C 74 %
130 05-01-2020 21:33:17 9.6 C 74 %
131 05-01-2020 21:43:17 9.6 C 74 %
132 05-01-2020 21:53:17 9.6 C 74 %
133 05-01-2020 22:03:17 9.6 C 74 %
134 05-01-2020 22:13:17 9.6 C 74 %
135 05-01-2020 22:23:17 9.6 C 74 %
136 05-01-2020 22:33:17 9.6 C 74 %
137 05-01-2020 22:43:17 9.6 C 74 %
138 05-01-2020 22:53:17 9.6 C 74 %
139 05-01-2020 23:03:17 9.6 C 74 %
140 05-01-2020 23:13:17 9.6 C 74 %
141 05-01-2020 23:23:17 9.6 C 74 %
142 05-01-2020 23:33:17 9.6 C 74 %
143 05-01-2020 23:43:17 9.6 C 74 %
144 05-01-2020 23:53:17 9.6 C 74 %

Legende:
   Min
   Max


Maximal/Minimal-Werte vom 05.01.2020 - 05.01.2020

Sensor Min Max Avg
Temp
(Aussen-T/F)
4.3 °C
05-01-2020  03:23:17
6.7 °C
05-01-2020  14:03:18
5.22 °C
Feuchte
(Aussen-T/F)
29 %
05-01-2020  18:33:17
44 %
05-01-2020  02:33:17
35.88 %
Temp
(G-T/H)
9.3 °C
05-01-2020  00:03:17
9.6 °C
05-01-2020  18:43:17
9.43 °C
Feuchte
(G-T/H)
73 %
05-01-2020  00:03:17
74 %
05-01-2020  07:13:17
73.57 %

Die Daten stammen von einer Davis Vantage Pro 2 Wetter-Station und werden unter Linux mit der Software wview2wettercgi und aufbereitet. Alle Angaben erfolgen ohne Gewähr für ihre Vollständigkeit oder Richtigkeit.
Kontakt: Rainer Krienke krienke@uni-koblenz.de . Meine Webseiten an der Uni Koblenz oder privat.
Version: $Revision: 0.78 $